Stündliche Wetter Dab

Heute, 28 Oktober, Mittwoch

Zeit Temperatur Niederschläge Wind Luftdruck Luftfeuchtigkeit
00:00 +9°C° 0.1 mm 2 m/S 746 mmHg 87%
01:00 +8°C° 0.1 mm 2 m/S 746 mmHg 88%
02:00 +8°C° 0 mm 2 m/S 746 mmHg 90%
03:00 +8°C° 0 mm 2 m/S 746 mmHg 92%
04:00 +7°C° 0 mm 2 m/S 746 mmHg 93%
05:00 +7°C° 0 mm 2 m/S 746 mmHg 93%
06:00 +7°C° 0 mm 2 m/S 747 mmHg 93%
07:00 +7°C° 0 mm 3 m/S 747 mmHg 93%
08:00 +8°C° 0 mm 3 m/S 747 mmHg 85%
09:00 +10°C° 0 mm 4 m/S 747 mmHg 77%
10:00 +11°C° 0 mm 4 m/S 747 mmHg 70%
11:00 +12°C° 0 mm 4 m/S 747 mmHg 66%
12:00 +13°C° 0 mm 4 m/S 746 mmHg 62%
13:00 +13°C° 0 mm 5 m/S 746 mmHg 59%
14:00 +12°C° 0 mm 4 m/S 746 mmHg 65%
15:00 +12°C° 0 mm 3 m/S 746 mmHg 71%
16:00 +11°C° 0 mm 3 m/S 746 mmHg 77%
17:00 +11°C° 0 mm 3 m/S 746 mmHg 78%
18:00 +11°C° 0 mm 3 m/S 746 mmHg 79%
19:00 +10°C° 0 mm 3 m/S 746 mmHg 80%
20:00 +10°C° 0 mm 3 m/S 746 mmHg 78%
21:00 +10°C° 0 mm 3 m/S 746 mmHg 76%
22:00 +9°C° 0 mm 3 m/S 746 mmHg 74%
23:00 +9°C° 0 mm 3 m/S 746 mmHg 77%

Morgen, 29 Oktober, Donnerstag

Zeit Temperatur Niederschläge Wind Luftdruck Luftfeuchtigkeit
00:00 +8°C° 0 mm 3 m/S 746 mmHg 80%
01:00 +8°C° 0 mm 3 m/S 746 mmHg 83%
02:00 +8°C° 0 mm 3 m/S 746 mmHg 85%
03:00 +7°C° 0 mm 3 m/S 746 mmHg 87%
04:00 +7°C° 0 mm 3 m/S 746 mmHg 89%
05:00 +7°C° 0 mm 3 m/S 746 mmHg 89%
06:00 +7°C° 0 mm 3 m/S 746 mmHg 88%
07:00 +8°C° 0 mm 3 m/S 746 mmHg 88%
08:00 +9°C° 0 mm 3 m/S 746 mmHg 83%
09:00 +10°C° 0 mm 4 m/S 746 mmHg 78%
10:00 +11°C° 0 mm 4 m/S 746 mmHg 72%
11:00 +11°C° 0 mm 4 m/S 746 mmHg 71%
12:00 +11°C° 0 mm 4 m/S 746 mmHg 70%
13:00 +12°C° 0 mm 4 m/S 745 mmHg 69%
14:00 +11°C° 0 mm 4 m/S 745 mmHg 72%
15:00 +10°C° 0 mm 3 m/S 745 mmHg 76%
16:00 +10°C° 0 mm 2 m/S 745 mmHg 79%
17:00 +10°C° 0.3 mm 2 m/S 746 mmHg 82%
18:00 +9°C° 0.3 mm 3 m/S 746 mmHg 84%
19:00 +9°C° 0.3 mm 3 m/S 746 mmHg 87%
20:00 +9°C° 0.8 mm 3 m/S 746 mmHg 87%
21:00 +9°C° 0.8 mm 3 m/S 746 mmHg 87%
22:00 +8°C° 0.8 mm 3 m/S 747 mmHg 86%
23:00 +8°C° 0.1 mm 3 m/S 747 mmHg 87%

übermorgen, 30 Oktober, Freitag

Zeit Temperatur Niederschläge Wind Luftdruck Luftfeuchtigkeit
00:00 +6°C° 0.1 mm 4 m/S 747 mmHg 87%
01:00 +6°C° 0.1 mm 4 m/S 747 mmHg 88%
02:00 +5°C° 0 mm 4 m/S 748 mmHg 90%
03:00 +5°C° 0 mm 4 m/S 748 mmHg 92%
04:00 +5°C° 0 mm 3 m/S 748 mmHg 94%
05:00 +4°C° 0 mm 3 m/S 748 mmHg 94%
06:00 +4°C° 0 mm 3 m/S 749 mmHg 95%
07:00 +4°C° 0 mm 3 m/S 749 mmHg 96%
08:00 +5°C° 0 mm 3 m/S 749 mmHg 94%
09:00 +5°C° 0 mm 3 m/S 749 mmHg 92%
10:00 +7°C° 0 mm 3 m/S 749 mmHg 90%
11:00 +7°C° 0 mm 3 m/S 749 mmHg 86%
12:00 +8°C° 0 mm 3 m/S 749 mmHg 83%
13:00 +9°C° 0 mm 2 m/S 749 mmHg 79%
14:00 +8°C° 0 mm 2 m/S 749 mmHg 80%
15:00 +8°C° 0 mm 2 m/S 749 mmHg 81%
16:00 +8°C° 0 mm 2 m/S 748 mmHg 82%
17:00 +8°C° 0.1 mm 1 m/S 749 mmHg 83%
18:00 +8°C° 0.1 mm 1 m/S 749 mmHg 85%
19:00 +8°C° 0.1 mm 1 m/S 749 mmHg 86%
20:00 +8°C° 0 mm 1 m/S 749 mmHg 86%
21:00 +7°C° 0 mm 1 m/S 750 mmHg 86%
22:00 +7°C° 0 mm 1 m/S 750 mmHg 86%
23:00 +6°C° 0 mm 1 m/S 750 mmHg 87%

31 Oktober, Samstag

Zeit Temperatur Niederschläge Wind Luftdruck Luftfeuchtigkeit
00:00 +6°C° 0 mm 1 m/S 751 mmHg 88%
01:00 +4°C° 0 mm 0 m/S 751 mmHg 90%
02:00 +5°C° 0 mm 1 m/S 752 mmHg 90%
03:00 +5°C° 0 mm 1 m/S 752 mmHg 89%
04:00 +5°C° 0 mm 1 m/S 753 mmHg 89%
05:00 +5°C° 0 mm 1 m/S 753 mmHg 89%
06:00 +4°C° 0 mm 0 m/S 754 mmHg 89%
07:00 +4°C° 0 mm 0 m/S 754 mmHg 89%
08:00 +5°C° 0 mm 0 m/S 754 mmHg 82%
09:00 +7°C° 0 mm 0 m/S 755 mmHg 76%
10:00 +9°C° 0 mm 0 m/S 756 mmHg 70%
11:00 +10°C° 0 mm 1 m/S 756 mmHg 67%
12:00 +11°C° 0 mm 1 m/S 756 mmHg 64%
13:00 +12°C° 0 mm 1 m/S 756 mmHg 62%
14:00 +11°C° 0 mm 1 m/S 756 mmHg 67%
15:00 +10°C° 0 mm 1 m/S 756 mmHg 72%
16:00 +9°C° 0 mm 1 m/S 756 mmHg 77%
17:00 +8°C° 0 mm 1 m/S 756 mmHg 79%
18:00 +7°C° 0 mm 2 m/S 756 mmHg 82%
19:00 +6°C° 0 mm 2 m/S 756 mmHg 85%
20:00 +6°C° 0 mm 2 m/S 756 mmHg 86%
21:00 +6°C° 0 mm 2 m/S 756 mmHg 88%
22:00 +6°C° 0 mm 2 m/S 756 mmHg 89%
23:00 +5°C° 0 mm 2 m/S 756 mmHg 90%

1 November, Sonntag

Zeit Temperatur Niederschläge Wind Luftdruck Luftfeuchtigkeit
00:00 +5°C° 0 mm 2 m/S 756 mmHg 91%
01:00 +4°C° 0 mm 3 m/S 756 mmHg 92%
02:00 +4°C° 0 mm 3 m/S 756 mmHg 92%
03:00 +4°C° 0 mm 3 m/S 756 mmHg 92%
04:00 +4°C° 0 mm 3 m/S 755 mmHg 92%
05:00 +4°C° 0 mm 3 m/S 755 mmHg 92%
06:00 +3°C° 0 mm 3 m/S 755 mmHg 92%
07:00 +3°C° 0 mm 4 m/S 755 mmHg 92%
08:00 +5°C° 0 mm 4 m/S 755 mmHg 85%
09:00 +6°C° 0 mm 5 m/S 755 mmHg 78%
10:00 +7°C° 0 mm 5 m/S 755 mmHg 71%
11:00 +8°C° 0 mm 5 m/S 754 mmHg 66%
12:00 +9°C° 0 mm 6 m/S 754 mmHg 62%
13:00 +10°C° 0 mm 6 m/S 754 mmHg 57%
14:00 +9°C° 0 mm 6 m/S 753 mmHg 60%
15:00 +8°C° 0 mm 5 m/S 753 mmHg 63%
16:00 +8°C° 0 mm 5 m/S 752 mmHg 67%
17:00 +7°C° 0 mm 5 m/S 752 mmHg 69%
18:00 +7°C° 0 mm 5 m/S 752 mmHg 72%
19:00 +7°C° 0 mm 5 m/S 752 mmHg 75%
20:00 +7°C° 0 mm 5 m/S 752 mmHg 77%
21:00 +6°C° 0 mm 5 m/S 752 mmHg 79%
22:00 +6°C° 0 mm 5 m/S 752 mmHg 81%
23:00 +6°C° 0 mm 5 m/S 751 mmHg 82%

2 November, Montag

Zeit Temperatur Niederschläge Wind Luftdruck Luftfeuchtigkeit
00:00 +6°C° 0 mm 5 m/S 751 mmHg 83%
01:00 +6°C° 0 mm 5 m/S 751 mmHg 84%
02:00 +6°C° 0 mm 5 m/S 751 mmHg 83%
03:00 +6°C° 0 mm 5 m/S 751 mmHg 83%
04:00 +6°C° 0 mm 5 m/S 750 mmHg 83%
05:00 +6°C° 0 mm 5 m/S 750 mmHg 83%
06:00 +6°C° 0 mm 5 m/S 750 mmHg 83%
07:00 +6°C° 0 mm 5 m/S 751 mmHg 83%
08:00 +7°C° 0 mm 5 m/S 751 mmHg 80%
09:00 +8°C° 0 mm 5 m/S 751 mmHg 76%
10:00 +9°C° 0 mm 5 m/S 750 mmHg 73%
11:00 +10°C° 0 mm 5 m/S 751 mmHg 72%
12:00 +10°C° 0 mm 5 m/S 751 mmHg 72%
13:00 +12°C° 0 mm 4 m/S 751 mmHg 71%
14:00 +12°C° 0 mm 4 m/S 751 mmHg 72%
15:00 +11°C° 0 mm 4 m/S 751 mmHg 74%
16:00 +11°C° 0 mm 4 m/S 751 mmHg 75%
17:00 +11°C° 0 mm 4 m/S 751 mmHg 76%
18:00 +11°C° 0 mm 4 m/S 751 mmHg 77%
19:00 +11°C° 0 mm 4 m/S 751 mmHg 78%
20:00 +11°C° 0 mm 3 m/S 751 mmHg 79%
21:00 +10°C° 0 mm 3 m/S 751 mmHg 81%
22:00 +10°C° 0 mm 3 m/S 751 mmHg 82%
23:00 +10°C° 0 mm 3 m/S 751 mmHg 82%
Mehr zeigen

Wir brauchen deine Erlaubnis

Meteoprog und unser Service Anbieter werden persönliche Daten aufbewahren, so wie Cookies, Geräte Bezeichnung oder ähnliche Technologien von deinem Gerät und Prozess, so wie Persönliche Daten Inhalte und Werbungen, genauso wie social Media und den Verkehr zu analysieren.

  • Aufbewahrung und/oder Zugang zu deiner Geräte Informationen.

    Cookies, Geräte Bezeichnung oder andere Informationen, können aufbewahrt oder Zugang zu deinem Gerät erhalten, für den Grund, der oben angegeben wird.

  • Personalisierte Werbung und Inhalte, Messungen, Einblick in das Publikum und Produkt Entwicklung.

    Werbungen und Inhalte können personalisiert werden, basierend auf ein Profil. Mehr Daten können besser personalisierte Werbungen und Inhalte hinzufügen. Werbung und Inhalte können gezeigt und gemessen werden. Einblicke über das Publikum, welche die Werbung gesehen haben und den Inhalt, können abgeleitet werden. So wie Daten können genutzt werden, um es zu verbessern oder die Benutzer Erfahrung zu verbessern das System und die Software.

Wenn du “Ich stimme zu” klickst, erlaubst du uns, die Cookies zu benutzen die Geräte Bezeichnung, den Web oder ähnliche Technologien zu benutzen. Deine Settings, können in deinem Gerät bei deinem Browser geändert werden.

Für den bestimmten Zweck, berechtigten Interessen beruhen darauf, mehr als auf den Inhalt. Du kannst mehr darüber in unseren Privaten und Cookie Politik lesen.